Weather History for Shahre-Kord, Iran

Change the Weather History Date:

Wednesday, February 6, 2013

  Actual Average Record
Temperature  
Mean Temperature 38 °F -  
Max Temperature 59 °F - - ()
Min Temperature 17 °F - - ()
Degree Days  
Heating Degree Days 27    
Moisture  
Dew Point 24 °F    
Average Humidity 62    
Maximum Humidity 93    
Minimum Humidity 20    
Precipitation  
Precipitation 0.00 in - - ()
Sea Level Pressure  
Sea Level Pressure 30.35 in    
Wind  
Wind Speed 0 mph ()    
Max Wind Speed 7 mph    
Max Gust Speed -    
Visibility 6.1 miles    
Events      
T = Trace of Precipitation, MM = Missing Value Source: Averaged Metar Reports

Daily Weather History Graph

Daily Weather History Graph

Search for Another Location

Airport:

Trip Planner

Search our weather history database for the weather conditions in past years. The results will help you decide how hot, cold, wet, or windy it might be!

Date:

Astronomy

Feb. 06, 2013 Rise Set
Actual Time 6:57 AM IRST 5:44 PM IRST
Civil Twilight 6:31 AM IRST 6:10 PM IRST
Nautical Twilight 6:02 AM IRST 6:39 PM IRST
Astronomical Twilight 5:33 AM IRST 7:08 PM IRST
Moon 3:10 AM IRST (2/6) 1:44 PM IRST (2/6)
Length of Visible Light 11h 38m
Length of Day
10h 47m
Waning Crescent, 20% of the Moon is Illuminated
Feb 6
Waning Crescent
Feb 10
New
Feb 18
First Quarter
Feb 25
Full
Mar 5
Last Quarter

Hourly Weather History & Observations

Time (IRST) Temp. Windchill Dew Point Humidity Pressure Visibility Wind Dir Wind Speed Gust Speed Precip Events Conditions
12:30 AM 28.4 °F - 24.8 °F 86% 30.33 in - Calm Calm - N/A   Clear
1:30 AM 26.6 °F - 23.0 °F 86% 30.33 in - Calm Calm - N/A   Clear
2:30 AM 26.6 °F - 24.8 °F 93% 30.30 in - Calm Calm - N/A   Clear
3:30 AM 23 °F - 20 °F 83% 30.40 in 6 mi Calm Calm - -  
3:30 AM 23.0 °F - 19.4 °F 86% 30.30 in - Calm Calm - N/A   Clear
4:30 AM 24.8 °F - 17.6 °F 74% 30.30 in - Calm Calm - N/A   Clear
5:30 AM 17.6 °F - 14.0 °F 86% 30.30 in - Calm Calm - N/A   Clear
6:30 AM 24.8 °F - 21.2 °F 86% 30.36 in 6.2 mi Calm Calm - N/A   Scattered Clouds
7:30 AM 23.0 °F - 19.4 °F 86% 30.36 in - Calm Calm - N/A   Clear
8:30 AM 33.8 °F - 24.8 °F 70% 30.36 in - Calm Calm - N/A   Clear
9:30 AM 36 °F - 25 °F 53% 30.47 in 6 mi Calm Calm - -   Scattered Clouds
9:30 AM 35.6 °F - 24.8 °F 65% 30.42 in - Calm Calm - N/A   Clear
10:30 AM 39.2 °F - 26.6 °F 61% 30.45 in 6.2 mi Calm Calm - N/A   Mostly Cloudy
11:30 AM 44.6 °F - 26.6 °F 49% 30.42 in 6.2 mi Calm Calm - N/A   Mostly Cloudy
12:30 PM 48.2 °F - 28.4 °F 46% 30.39 in 6.2 mi Calm Calm - N/A   Scattered Clouds
1:30 PM 53.6 °F - 30.2 °F 41% 30.36 in - Calm Calm - N/A   Clear
2:30 PM 55.4 °F - 32.0 °F 41% 30.36 in - Calm Calm - N/A   Clear
3:30 PM 59 °F - 29 °F 20% 30.26 in 6 mi Calm Calm - -   Scattered Clouds
3:30 PM 59.0 °F - 28.4 °F 31% 30.33 in - Calm Calm - N/A   Clear
4:30 PM 55.4 °F - 26.6 °F 33% 30.33 in - Calm Calm - N/A   Clear
6:30 PM 44.6 °F - 23.0 °F 43% 30.33 in - Calm Calm - N/A   Clear
7:30 PM 42.8 °F 38.6 °F 23.0 °F 46% 30.33 in 6.2 mi West 6.9 mph - N/A   Partly Cloudy
8:30 PM 39.2 °F - 23.0 °F 52% 30.33 in 6.2 mi Calm Calm - N/A   Partly Cloudy
9:30 PM 37 °F - 22 °F 41% 30.33 in 6 mi Calm Calm - -   Scattered Clouds
9:30 PM 37.4 °F - 21.2 °F 52% 30.33 in 6.2 mi Calm Calm - N/A   Partly Cloudy
10:30 PM 32.0 °F 27.5 °F 24.8 °F 75% 30.33 in 6.2 mi North 4.6 mph - N/A   Partly Cloudy
11:30 PM 30.2 °F - 24.8 °F 80% 30.33 in - Calm Calm - N/A   Clear